Weather Data

Pearl Creek Farm: 8878 N Farm Road 75, Walnut Grove MO 65770

<== Previous Day (Tuesday 29 Jan 2013) | Next Day (Thursday 31 Jan 2013) ==>

Summary Precipitation Data For Wednesday 30 January 2013

ElementValueUnits
Precipitation1.8"
NotesRain was steady most of the evening but seemed to come in waves with heavier rain throughout the day from viewing the radar loop. Cold this morning and some snow spitting once I reached Spgfld.
SourcePearl Creek Farm

Summary Temperature Data For Wednesday 30 January 2013

ElementValueUnits
High Temperature45 oF
Low Temperature27 oF
Average Temperature33 oF
High Humidity95 %
Low Humidity79 %
Average Humidity88 %
SourcePearl Creek Farm

Detail Temperature Data For Wednesday 30 January 2013

Date / TimeTemp (F)RH (%)Dew Pt (F)Report Date / TimeSource
2013-01-30 00:00:00 45 95 43.7 2013-05-04 11:51:29 Pearl Creek Farm
2013-01-30 00:30:00 45 95 43.7 2013-05-04 11:51:29 Pearl Creek Farm
2013-01-30 01:00:00 44 95 42.7 2013-05-04 11:51:29 Pearl Creek Farm
2013-01-30 01:30:00 44 95 42.7 2013-05-04 11:51:29 Pearl Creek Farm
2013-01-30 02:00:00 43 95 41.5 2013-05-04 11:51:29 Pearl Creek Farm
2013-01-30 02:30:00 42 95 40.7 2013-05-04 11:51:29 Pearl Creek Farm
2013-01-30 03:00:00 41 95 39.7 2013-05-04 11:51:29 Pearl Creek Farm
2013-01-30 03:30:00 41 95 39.7 2013-05-04 11:51:29 Pearl Creek Farm
2013-01-30 04:00:00 40 95 38.7 2013-05-04 11:51:29 Pearl Creek Farm
2013-01-30 04:30:00 39 94 37.4 2013-05-04 11:51:29 Pearl Creek Farm
2013-01-30 05:00:00 39 94 37.3 2013-05-04 11:51:29 Pearl Creek Farm
2013-01-30 05:30:00 38 93 36.0 2013-05-04 11:51:29 Pearl Creek Farm
2013-01-30 06:00:00 37 92 34.8 2013-05-04 11:51:29 Pearl Creek Farm
2013-01-30 06:30:00 37 91 34.6 2013-05-04 11:51:29 Pearl Creek Farm
2013-01-30 07:00:00 36 92 33.8 2013-05-04 11:51:29 Pearl Creek Farm
2013-01-30 07:30:00 36 93 34.0 2013-05-04 11:51:29 Pearl Creek Farm
2013-01-30 08:00:00 36 93 34.2 2013-05-04 11:51:29 Pearl Creek Farm
2013-01-30 08:30:00 35 93 33.2 2013-05-04 11:51:29 Pearl Creek Farm
2013-01-30 09:00:00 34 92 31.9 2013-05-04 11:51:29 Pearl Creek Farm
2013-01-30 09:30:00 33 92 30.8 2013-05-04 11:51:29 Pearl Creek Farm
2013-01-30 10:00:00 32 89 29.1 2013-05-04 11:51:29 Pearl Creek Farm
2013-01-30 10:30:00 32 91 29.5 2013-05-04 11:51:29 Pearl Creek Farm
2013-01-30 11:00:00 32 90 29.3 2013-05-04 11:51:29 Pearl Creek Farm
2013-01-30 11:30:00 31 88 27.7 2013-05-04 11:51:29 Pearl Creek Farm
2013-01-30 12:00:00 31 88 27.7 2013-05-04 11:51:29 Pearl Creek Farm
2013-01-30 12:30:00 31 88 27.7 2013-05-04 11:51:29 Pearl Creek Farm
2013-01-30 13:00:00 31 88 27.7 2013-05-04 11:51:29 Pearl Creek Farm
2013-01-30 13:30:00 30 88 26.8 2013-05-04 11:51:29 Pearl Creek Farm
2013-01-30 14:00:00 30 87 26.6 2013-05-04 11:51:29 Pearl Creek Farm
2013-01-30 14:30:00 30 87 26.5 2013-05-04 11:51:29 Pearl Creek Farm
2013-01-30 15:00:00 30 87 26.6 2013-05-04 11:51:29 Pearl Creek Farm
2013-01-30 15:30:00 30 86 26.2 2013-05-04 11:51:29 Pearl Creek Farm
2013-01-30 16:00:00 30 85 25.9 2013-05-04 11:51:29 Pearl Creek Farm
2013-01-30 16:30:00 29 85 24.9 2013-05-04 11:51:29 Pearl Creek Farm
2013-01-30 17:00:00 29 83 24.4 2013-05-04 11:51:29 Pearl Creek Farm
2013-01-30 17:30:00 29 83 24.5 2013-05-04 11:51:29 Pearl Creek Farm
2013-01-30 18:00:00 28 83 23.5 2013-05-04 11:51:29 Pearl Creek Farm
2013-01-30 18:30:00 28 82 23.1 2013-05-04 11:51:29 Pearl Creek Farm
2013-01-30 19:00:00 28 82 23.1 2013-05-04 11:51:29 Pearl Creek Farm
2013-01-30 19:30:00 28 81 22.8 2013-05-04 11:51:29 Pearl Creek Farm
2013-01-30 20:00:00 28 80 22.7 2013-05-04 11:51:29 Pearl Creek Farm
2013-01-30 20:30:00 28 82 23.1 2013-05-04 11:51:29 Pearl Creek Farm
2013-01-30 21:00:00 28 80 22.7 2013-05-04 11:51:29 Pearl Creek Farm
2013-01-30 21:30:00 28 80 22.5 2013-05-04 11:51:29 Pearl Creek Farm
2013-01-30 22:00:00 27 80 21.7 2013-05-04 11:51:29 Pearl Creek Farm
2013-01-30 22:30:00 27 80 21.5 2013-05-04 11:51:29 Pearl Creek Farm
2013-01-30 23:00:00 27 79 21.2 2013-05-04 11:51:29 Pearl Creek Farm
2013-01-30 23:30:00 28 79 22.4 2013-05-04 11:51:29 Pearl Creek Farm

A total of 48 rows are displayed.